Tracking 22882 objects as of 18-Apr-2021
HD Live streaming from Space Station
objects crossing your sky now

METEOR 1-13

Track METEOR 1-13 now!
10-day predictions
METEOR 1-13 is classified as:


NORAD ID: 6256
Int'l Code: 1972-085A
Perigee: 848.7 km
Apogee: 891.6 km
Inclination: 81.3 °
Period: 102.2 minutes
Semi major axis: 7241 km
RCS: 4.603 m2 (large)
Launch date: October 26, 1972
Source: Commonwealth of Independent States (former USSR) (CIS)
Launch site: PLESETSK MISSILE AND SPACE COMPLEX (PKMTR)
aabbcc
Your satellite tracking list
Your tracking list is empty




NASA's NSSDC Master Catalog

Two Line Element Set (TLE):
1 06256U 72085A   21108.54060221 -.00000093  00000-0 -61358-4 0  9994
2 06256  81.2729 179.8884 0029599 103.1928 257.2548 14.08933737489305
Source of the keplerian elements: AFSPC